When you browse on this site, cookies collect data to enhance your experience and personalize the content and advertising you see.
Visit our Privacy Policy to learn more. By continuing to use the site, you agree to this use of cookies and data.
EN

Hourly Weather Zhelyabovka

Today, 11 August, Tuesday

Time Temperature Precipitation Wind Pressure Humidity
00:00 +23°C° 0 mm 2 mps 756 mmHg 56%
01:00 +23°C° 0 mm 2 mps 755 mmHg 56%
02:00 +21°C° 0 mm 2 mps 756 mmHg 58%
03:00 +21°C° 0 mm 2 mps 756 mmHg 60%
04:00 +21°C° 0 mm 2 mps 756 mmHg 63%
05:00 +21°C° 0 mm 2 mps 756 mmHg 66%
06:00 +24°C° 0 mm 2 mps 756 mmHg 60%
07:00 +27°C° 0 mm 2 mps 756 mmHg 54%
08:00 +29°C° 0 mm 3 mps 756 mmHg 46%
09:00 +31°C° 0 mm 3 mps 756 mmHg 40%
10:00 +33°C° 0 mm 4 mps 757 mmHg 35%
11:00 +34°C° 0 mm 4 mps 757 mmHg 29%
12:00 +34°C° 0 mm 4 mps 757 mmHg 29%
13:00 +34°C° 0 mm 4 mps 756 mmHg 29%
14:00 +33°C° 0 mm 4 mps 756 mmHg 30%
15:00 +33°C° 0 mm 3 mps 756 mmHg 31%
16:00 +33°C° 0 mm 3 mps 756 mmHg 31%
17:00 +31°C° 0 mm 2 mps 756 mmHg 32%
18:00 +29°C° 0 mm 2 mps 756 mmHg 38%
19:00 +28°C° 0 mm 1 mps 756 mmHg 43%
20:00 +26°C° 0 mm 1 mps 756 mmHg 48%
21:00 +25°C° 0 mm 1 mps 756 mmHg 51%
22:00 +24°C° 0 mm 2 mps 756 mmHg 53%
23:00 +24°C° 0 mm 2 mps 756 mmHg 56%

Tomorrow, 12 August, Wednesday

Time Temperature Precipitation Wind Pressure Humidity
00:00 +23°C° 0 mm 2 mps 756 mmHg 58%
01:00 +22°C° 0 mm 3 mps 756 mmHg 59%
02:00 +22°C° 0 mm 3 mps 756 mmHg 61%
03:00 +22°C° 0 mm 3 mps 756 mmHg 63%
04:00 +21°C° 0 mm 3 mps 756 mmHg 65%
05:00 +21°C° 0 mm 3 mps 756 mmHg 67%
06:00 +24°C° 0 mm 3 mps 756 mmHg 60%
07:00 +27°C° 0 mm 3 mps 756 mmHg 53%
08:00 +29°C° 0 mm 3 mps 756 mmHg 46%
09:00 +30°C° 0 mm 4 mps 756 mmHg 42%
10:00 +32°C° 0 mm 4 mps 756 mmHg 37%
11:00 +34°C° 0 mm 4 mps 756 mmHg 33%
12:00 +33°C° 0 mm 4 mps 756 mmHg 34%
13:00 +33°C° 0 mm 4 mps 756 mmHg 36%
14:00 +32°C° 0 mm 4 mps 756 mmHg 38%
15:00 +30°C° 0 mm 3 mps 756 mmHg 40%
16:00 +30°C° 0 mm 2 mps 756 mmHg 42%
17:00 +29°C° 0 mm 2 mps 756 mmHg 44%
18:00 +28°C° 0.1 mm 2 mps 756 mmHg 48%
19:00 +26°C° 0.1 mm 2 mps 756 mmHg 53%
20:00 +25°C° 0.1 mm 3 mps 756 mmHg 57%
21:00 +24°C° 0.3 mm 3 mps 757 mmHg 62%
22:00 +22°C° 0.3 mm 3 mps 757 mmHg 68%
23:00 +21°C° 0.3 mm 3 mps 757 mmHg 73%

Day after tomorrow, 13 August, Thursday

Time Temperature Precipitation Wind Pressure Humidity
00:00 +21°C° 0 mm 3 mps 757 mmHg 74%
01:00 +21°C° 0 mm 3 mps 757 mmHg 75%
02:00 +21°C° 0 mm 3 mps 757 mmHg 76%
03:00 +20°C° 0 mm 3 mps 757 mmHg 77%
04:00 +20°C° 0 mm 3 mps 757 mmHg 77%
05:00 +20°C° 0 mm 3 mps 757 mmHg 77%
06:00 +21°C° 0 mm 4 mps 757 mmHg 70%
07:00 +22°C° 0 mm 4 mps 757 mmHg 63%
08:00 +23°C° 0 mm 5 mps 758 mmHg 56%
09:00 +25°C° 0 mm 5 mps 758 mmHg 50%
10:00 +26°C° 0 mm 5 mps 758 mmHg 45%
11:00 +27°C° 0 mm 5 mps 758 mmHg 39%
12:00 +28°C° 0 mm 5 mps 758 mmHg 36%
13:00 +28°C° 0 mm 5 mps 758 mmHg 33%
14:00 +29°C° 0 mm 4 mps 758 mmHg 29%
15:00 +28°C° 0 mm 4 mps 758 mmHg 30%
16:00 +28°C° 0 mm 4 mps 757 mmHg 30%
17:00 +27°C° 0 mm 3 mps 757 mmHg 30%
18:00 +26°C° 0 mm 3 mps 758 mmHg 35%
19:00 +24°C° 0 mm 2 mps 758 mmHg 40%
20:00 +21°C° 0 mm 2 mps 758 mmHg 45%
21:00 +20°C° 0 mm 2 mps 758 mmHg 47%
22:00 +20°C° 0 mm 2 mps 758 mmHg 49%
23:00 +20°C° 0 mm 2 mps 758 mmHg 51%

14 August, Friday

Time Temperature Precipitation Wind Pressure Humidity
00:00 +19°C° 0 mm 2 mps 758 mmHg 53%
01:00 +19°C° 0 mm 2 mps 758 mmHg 55%
02:00 +18°C° 0 mm 3 mps 758 mmHg 57%
03:00 +18°C° 0 mm 2 mps 758 mmHg 58%
04:00 +18°C° 0 mm 2 mps 758 mmHg 60%
05:00 +18°C° 0 mm 2 mps 758 mmHg 61%
06:00 +20°C° 0 mm 2 mps 758 mmHg 55%
07:00 +23°C° 0 mm 2 mps 758 mmHg 49%
08:00 +25°C° 0 mm 3 mps 758 mmHg 43%
09:00 +26°C° 0 mm 3 mps 758 mmHg 40%
10:00 +27°C° 0 mm 4 mps 758 mmHg 37%
11:00 +28°C° 0 mm 5 mps 758 mmHg 33%
12:00 +28°C° 0 mm 5 mps 758 mmHg 32%
13:00 +29°C° 0 mm 5 mps 758 mmHg 31%
14:00 +29°C° 0 mm 5 mps 758 mmHg 29%
15:00 +28°C° 0 mm 4 mps 758 mmHg 31%
16:00 +28°C° 0 mm 4 mps 758 mmHg 32%
17:00 +27°C° 0 mm 4 mps 757 mmHg 33%
18:00 +25°C° 0 mm 3 mps 758 mmHg 39%
19:00 +24°C° 0 mm 2 mps 758 mmHg 44%
20:00 +22°C° 0 mm 1 mps 758 mmHg 50%
21:00 +21°C° 0 mm 1 mps 758 mmHg 52%
22:00 +21°C° 0 mm 1 mps 758 mmHg 54%
23:00 +20°C° 0 mm 1 mps 758 mmHg 56%

15 August, Saturday

Time Temperature Precipitation Wind Pressure Humidity
00:00 +19°C° 0 mm 2 mps 758 mmHg 57%
01:00 +18°C° 0 mm 2 mps 758 mmHg 58%
02:00 +18°C° 0 mm 2 mps 758 mmHg 59%
03:00 +18°C° 0 mm 2 mps 758 mmHg 60%
04:00 +18°C° 0 mm 2 mps 758 mmHg 62%
05:00 +17°C° 0 mm 2 mps 758 mmHg 63%
06:00 +19°C° 0 mm 3 mps 758 mmHg 58%
07:00 +22°C° 0 mm 3 mps 759 mmHg 52%
08:00 +25°C° 0 mm 4 mps 759 mmHg 46%
09:00 +25°C° 0 mm 4 mps 759 mmHg 44%
10:00 +26°C° 0 mm 4 mps 759 mmHg 42%
11:00 +26°C° 0 mm 5 mps 759 mmHg 40%
12:00 +26°C° 0 mm 5 mps 759 mmHg 40%
13:00 +27°C° 0 mm 5 mps 759 mmHg 39%
14:00 +27°C° 0 mm 5 mps 759 mmHg 38%
15:00 +26°C° 0 mm 4 mps 759 mmHg 38%
16:00 +26°C° 0 mm 4 mps 758 mmHg 38%
17:00 +25°C° 0 mm 4 mps 758 mmHg 38%
18:00 +22°C° 0 mm 3 mps 758 mmHg 43%
19:00 +20°C° 0 mm 2 mps 758 mmHg 49%
20:00 +19°C° 0 mm 2 mps 759 mmHg 54%
21:00 +19°C° 0 mm 1 mps 758 mmHg 55%
22:00 +19°C° 0 mm 1 mps 758 mmHg 56%
23:00 +19°C° 0 mm 1 mps 758 mmHg 57%

16 August, Sunday

Time Temperature Precipitation Wind Pressure Humidity
00:00 +19°C° 0 mm 1 mps 758 mmHg 58%
01:00 +19°C° 0 mm 1 mps 758 mmHg 59%
02:00 +17°C° 0 mm 2 mps 758 mmHg 61%
03:00 +17°C° 0 mm 2 mps 758 mmHg 62%
04:00 +17°C° 0 mm 2 mps 758 mmHg 63%
05:00 +17°C° 0 mm 2 mps 758 mmHg 64%
06:00 +19°C° 0 mm 3 mps 758 mmHg 58%
07:00 +22°C° 0 mm 4 mps 758 mmHg 52%
08:00 +25°C° 0 mm 5 mps 758 mmHg 46%
09:00 +25°C° 0.1 mm 5 mps 758 mmHg 47%
10:00 +25°C° 0.1 mm 5 mps 759 mmHg 49%
11:00 +24°C° 0.1 mm 6 mps 759 mmHg 50%
12:00 +24°C° 0.1 mm 6 mps 759 mmHg 48%
13:00 +26°C° 0.1 mm 6 mps 759 mmHg 45%
14:00 +26°C° 0.1 mm 6 mps 759 mmHg 43%
15:00 +26°C° 0 mm 6 mps 759 mmHg 41%
16:00 +25°C° 0 mm 5 mps 758 mmHg 40%
17:00 +25°C° 0 mm 5 mps 758 mmHg 38%
18:00 +22°C° 0 mm 4 mps 758 mmHg 44%
19:00 +20°C° 0 mm 3 mps 759 mmHg 49%
20:00 +18°C° 0 mm 2 mps 759 mmHg 55%
21:00 +18°C° 0 mm 2 mps 759 mmHg 56%
22:00 +18°C° 0 mm 2 mps 759 mmHg 57%
23:00 +18°C° 0 mm 2 mps 759 mmHg 58%
Show more